Weather History for Glens Falls, NY

Change the Weather History Date:

Monday, December 16, 2013

  Actual Average Record
Temperature  
Mean Temperature 8 °F 25 °F  
Max Temperature 24 °F 34 °F 56 °F (1982)
Min Temperature -9 °F 16 °F -10 °F (1951)
Degree Days  
Heating Degree Days 57 40  
Month to date heating degree days 632 593  
Since 1 July heating degree days 2311 2291  
Cooling Degree Days 0 0  
Month to date cooling degree days 0 0  
Year to date cooling degree days 537 352  
Moisture  
Dew Point 3 °F    
Average Humidity 64    
Maximum Humidity 91    
Minimum Humidity 36    
Precipitation  
Precipitation T in 0.10 in 0.92 in (1982)
Month to date precipitation 1.29 1.71  
Year to date precipitation 34.13 37.72  
Sea Level Pressure  
Sea Level Pressure 30.04 in    
Wind  
Wind Speed 5 mph (WSW)    
Max Wind Speed 16 mph    
Max Gust Speed 23 mph    
Visibility 10 miles    
Events Snow    
T = Trace of Precipitation, MM = Missing Value Source: NWS Daily Summary

Daily Weather History Graph

Daily Weather History Graph

Search for Another Location

Airport:

Trip Planner

Search our weather history database for the weather conditions in past years. The results will help you decide how hot, cold, wet, or windy it might be!

Date:

Astronomy

Dec. 16, 2013 Rise Set
Actual Time 7:20 AM EST 4:19 PM EST
Civil Twilight 6:48 AM EST 4:52 PM EST
Nautical Twilight 6:12 AM EST 5:28 PM EST
Astronomical Twilight 5:37 AM EST 6:03 PM EST
Moon 4:09 PM EST (12/16) 6:25 AM EST (12/16)
Length of Visible Light 10h 04m
Length of Day
8h 58m
Full, 100% of the Moon is Illuminated
Dec 16
Full
Dec 17
Full
Dec 25
Last Quarter
Jan 1
New
Jan 7
First Quarter

Hourly Weather History & Observations

Time (EST) Temp. Windchill Dew Point Humidity Pressure Visibility Wind Dir Wind Speed Gust Speed Precip Events Conditions
12:53 AM 19.9 °F 14.9 °F 17.1 °F 89% 29.76 in 8.0 mi South 3.5 mph - 0.00 in Snow Light Snow
1:53 AM 21.9 °F 17.2 °F 14.0 °F 72% 29.78 in 10.0 mi West 3.5 mph - N/A   Scattered Clouds
2:53 AM 23.0 °F 14.7 °F 12.9 °F 65% 29.81 in 10.0 mi WSW 6.9 mph - N/A   Partly Cloudy
3:53 AM 21.9 °F 13.4 °F 10.0 °F 60% 29.83 in 10.0 mi West 6.9 mph - N/A   Partly Cloudy
4:53 AM 19.0 °F 13.9 °F 10.0 °F 68% 29.87 in 10.0 mi SW 3.5 mph - N/A   Partly Cloudy
5:53 AM 14.0 °F 6.5 °F 8.1 °F 77% 29.90 in 10.0 mi SW 4.6 mph - N/A   Clear
6:53 AM 9.0 °F -2.2 °F 6.1 °F 88% 29.94 in 10.0 mi SW 6.9 mph - N/A   Clear
7:53 AM 16.0 °F 7.4 °F 5.0 °F 62% 29.97 in 10.0 mi West 5.8 mph - N/A   Clear
8:53 AM 18.0 °F 11.1 °F 3.0 °F 52% 30.01 in 10.0 mi West 4.6 mph - N/A   Clear
9:53 AM 19.0 °F 10.0 °F 1.0 °F 46% 30.03 in 10.0 mi West 6.9 mph - N/A   Clear
10:53 AM 19.9 °F 11.1 °F 3.0 °F 48% 30.03 in 10.0 mi Variable 6.9 mph 20.7 mph N/A   Clear
11:53 AM 21.9 °F 15.7 °F 1.0 °F 40% 30.02 in 10.0 mi WSW 4.6 mph - N/A   Partly Cloudy
12:53 PM 24.1 °F 14.4 °F 1.9 °F 38% 30.03 in 10.0 mi WSW 9.2 mph - N/A   Overcast
1:53 PM 21.0 °F 9.3 °F 1.9 °F 44% 30.04 in 10.0 mi WNW 11.5 mph - N/A   Overcast
2:53 PM 21.0 °F 10.6 °F 1.9 °F 44% 30.06 in 10.0 mi WNW 9.2 mph - N/A   Partly Cloudy
3:53 PM 19.9 °F 11.1 °F 3.0 °F 48% 30.10 in 10.0 mi West 6.9 mph - N/A   Overcast
4:53 PM 16.0 °F 8.8 °F 3.9 °F 59% 30.12 in 10.0 mi WNW 4.6 mph - N/A   Scattered Clouds
5:53 PM 10.9 °F 0.2 °F 3.0 °F 70% 30.15 in 10.0 mi East 6.9 mph - N/A   Clear
6:53 PM 5.0 °F - -2.0 °F 73% 30.19 in 10.0 mi Calm Calm - N/A   Clear
7:53 PM 3.0 °F -6.4 °F -2.9 °F 76% 30.22 in 10.0 mi SW 4.6 mph - N/A   Clear
8:53 PM 5.0 °F - -2.9 °F 70% 30.23 in 10.0 mi Calm Calm - N/A   Clear
9:53 PM -0.0 °F - -6.0 °F 76% 30.26 in 10.0 mi Calm Calm - N/A   Clear
10:53 PM -5.1 °F - -9.9 °F 80% 30.27 in 10.0 mi Calm Calm - N/A   Clear
11:53 PM -5.1 °F - -9.9 °F 80% 30.27 in 10.0 mi Calm Calm - N/A   Clear